| time (UTC) | temp F | wind direction | speed knots | gust knots | rain 1hr in | rain 24hr in | rain mn in | humidity % | barometer mb |
| 20260503210052 | 84 | 107 | 2.6 | 5.2 | 0.00 | 0.00 | 0.00 | ||
| 20260503200101 | 81 | 61 | 2.6 | 5.2 | 0.00 | 0.00 | 0.00 | ||
| 20260503193044 | 79 | 294 | 1.7 | 4.3 | 0.00 | 0.00 | 0.00 | ||
| 20260503190054 | 77 | 114 | 2.6 | 7.0 | 0.00 | 0.00 | 0.00 | ||
| 20260503180106 | 74 | 83 | 2.6 | 5.2 | 0.00 | 0.00 | 0.00 | ||
| 20260503173046 | 71 | 112 | 2.6 | 7.0 | 0.00 | 0.00 | 0.00 | ||
| 20260503150111 | 62 | 72 | 1.7 | 3.5 | 0.00 | 0.00 | 0.00 | ||
| 20260503053033 | 54 | 222 | 0.0 | 0.0 | 0.00 | 0.00 | 0.00 | ||
| 20260503043043 | 54 | 241 | 0.0 | 2.6 | 0.00 | 0.00 | 0.00 | ||
| 20260503040054 | 54 | 257 | 0.9 | 3.5 | 0.00 | 0.00 | 0.00 | ||
| 20260503033033 | 55 | 237 | 0.0 | 4.3 | 0.00 | 0.00 | 0.00 | ||
| 20260503023053 | 57 | 206 | 0.9 | 4.3 | 0.00 | 0.00 | 0.00 | ||
| 20260503013041 | 61 | 217 | 0.9 | 6.1 | 0.00 | 0.00 | 0.00 | ||
| 20260503010053 | 63 | 225 | 0.9 | 6.1 | 0.00 | 0.00 | 0.00 | ||
| 20260503003035 | 66 | 225 | 0.9 | 4.3 | 0.00 | 0.00 | 0.00 | ||
| 20260503000105 | 68 | 266 | 0.0 | 5.2 | 0.00 | 0.00 | 0.00 | ||
| 20260502233044 | 68 | 143 | 2.6 | 5.2 | 0.00 | 0.00 | 0.00 | ||
| 20260502230055 | 74 | 301 | 0.9 | 6.1 | 0.00 | 0.00 | 0.00 | ||
| 20260502223035 | 71 | 160 | 1.7 | 5.2 | 0.00 | 0.00 | 0.00 | ||
| 20260502220101 | 68 | 203 | 0.9 | 6.1 | 0.00 | 0.00 | 0.00 | ||
| 20260502213043 | 67 | 171 | 1.7 | 7.0 | 0.00 | 0.00 | 0.00 |